WFOV (USA 332)

Last updated on Sun Jun 21 2026 00:03:08 GMT+0000 (Coordinated Universal Time)

1 52940U 22073A 26171.44607132 -.00000367 00000+0 00000+0 0 9993 2 52940 3.7203 78.4896 0002017 255.7442 214.2717 1.00273601 14401
UTC large
Height (km)
Speed (km/s)
/
Latitude / Longitude
Inclination (degrees)
Orbital Period (minutes)
Azimuth
Elevation
Range (km)
Doppler Factor

Next 0 passes for location: London (51.5072 / 0.1276)

No passes found over London.
WFOV (USA 332)